Beaufort MCAS, SC

10:08 AM EDT on July 28, 2017 (GMT -0400)
Beaufort Marine Corps Air Station

Weather History for KNBC - July, 2013

Change the Weather History Date:

Saturday, July 20, 2013

  Actual Average Record
Temperature  
Mean Temperature 82 °F -  
Max Temperature 90 °F 90 °F 103 °F (1942)
Min Temperature 75 °F 73 °F 66 °F (1938)
Cooling Degree Days 16    
Growing Degree Days 32 (Base 50)    
Moisture  
Dew Point 71 °F    
Average Humidity 74    
Maximum Humidity 84    
Minimum Humidity 57    
Precipitation  
Precipitation 0.01 in - - ()
Sea Level Pressure  
Sea Level Pressure 30.05 in    
Wind  
Wind Speed 7 mph (SW)    
Max Wind Speed 18 mph    
Max Gust Speed 23 mph    
Visibility 10 miles    
Events Rain , Thunderstorm    
Averages and records for this station are not official NWS values.
T = Trace of Precipitation, MM = Missing Value Source: NWS Daily Summary

Daily Weather History Graph

Daily Weather History Graph

Search for Another Location

Airport or City:

Trip Planner

Search our weather history database for the weather conditions in past years. The results will help you decide how hot, cold, wet, or windy it might be!

Date:

Astronomy

Jul. 20, 2013 Rise Set
Actual Time 6:29 AM EDT 8:28 PM EDT
Civil Twilight 6:02 AM EDT 8:56 PM EDT
Nautical Twilight 5:28 AM EDT 9:29 PM EDT
Astronomical Twilight 4:52 AM EDT 10:05 PM EDT
Moon 6:31 PM EDT (7/20) 4:07 AM EDT (7/20)
Length of Visible Light 14h 54m
Length of Day
13h 59m
Waxing Gibbous, 93% of the Moon is Illuminated
Jul 20
Waxing Gibbous
Jul 22
Full
Jul 29
Last Quarter
Aug 6
New
Aug 14
First Quarter

Hourly Weather History & Observations

Time (EDT) Temp. Heat Index Dew Point Humidity Pressure Visibility Wind Dir Wind Speed Gust Speed Precip Events Conditions
12:56 AM 77.0 °F - 72.0 °F 84% 30.10 in 10.0 mi SW 6.9 mph - N/A   Overcast
1:56 AM 77.0 °F - 71.1 °F 82% 30.09 in 10.0 mi SSW 9.2 mph - N/A   Scattered Clouds
2:56 AM 77.0 °F - 71.1 °F 82% 30.08 in 10.0 mi SSW 4.6 mph - N/A   Clear
3:56 AM 77.0 °F - 69.1 °F 76% 30.07 in 10.0 mi SSW 5.8 mph - N/A   Clear
4:56 AM 75.9 °F - 70.0 °F 82% 30.06 in 10.0 mi SW 4.6 mph - N/A   Clear
5:56 AM 75.0 °F - 70.0 °F 84% 30.07 in 10.0 mi WSW 3.5 mph - N/A   Clear
6:56 AM 75.0 °F - 70.0 °F 84% 30.07 in 10.0 mi West 3.5 mph - N/A   Mostly Cloudy
7:56 AM 77.0 °F - 72.0 °F 84% 30.08 in 10.0 mi WSW 5.8 mph - N/A   Mostly Cloudy
8:56 AM 79.0 °F - 71.1 °F 77% 30.09 in 10.0 mi WSW 12.7 mph - N/A   Mostly Cloudy
9:56 AM 82.9 °F 88.8 °F 73.0 °F 72% 30.10 in 10.0 mi SW 9.2 mph - N/A   Mostly Cloudy
10:56 AM 82.0 °F 86.7 °F 72.0 °F 71% 30.10 in 10.0 mi Variable 4.6 mph - N/A   Mostly Cloudy
11:56 AM 84.9 °F 90.7 °F 72.0 °F 65% 30.10 in 10.0 mi WSW 8.1 mph - N/A   Mostly Cloudy
12:56 PM 86.0 °F 92.2 °F 72.0 °F 63% 30.09 in 10.0 mi SW 8.1 mph - N/A   Mostly Cloudy
1:03 PM 87.1 °F 93.6 °F 72.0 °F 61% 30.08 in 10.0 mi Variable 6.9 mph - N/A   Mostly Cloudy
1:56 PM 88.0 °F 93.8 °F 71.1 °F 57% 30.05 in 10.0 mi South 5.8 mph - N/A   Mostly Cloudy
2:56 PM 88.0 °F 95.6 °F 73.0 °F 61% 30.03 in 10.0 mi SSE 6.9 mph - N/A   Mostly Cloudy
3:37 PM 84.9 °F 90.7 °F 72.0 °F 65% 30.02 in 10.0 mi South 9.2 mph 18.4 mph N/A Thunderstorm Thunderstorm
3:53 PM 84.2 °F 90.9 °F 73.4 °F 70% 30.03 in 10.0 mi SW 12.7 mph 19.6 mph N/A   Overcast
3:56 PM 82.9 °F 87.5 °F 71.1 °F 67% 30.03 in 10.0 mi SW 18.4 mph 23.0 mph N/A   Overcast
4:56 PM 81.0 °F 84.9 °F 71.1 °F 72% 30.01 in 10.0 mi South 6.9 mph - N/A   Partly Cloudy
5:56 PM 84.9 °F 91.4 °F 73.0 °F 67% 30.01 in 10.0 mi Variable 5.8 mph - N/A   Partly Cloudy
6:56 PM 84.0 °F 89.6 °F 72.0 °F 67% 30.01 in 10.0 mi SSW 8.1 mph - N/A   Clear
7:56 PM 82.0 °F 87.4 °F 73.0 °F 74% 30.02 in 7.0 mi South 8.1 mph - 0.01 in Rain Light Rain
8:04 PM 80.1 °F 84.2 °F 73.0 °F 79% 30.01 in 7.0 mi SSW 12.7 mph 19.6 mph 0.00 in Rain Light Rain
8:13 PM 79.0 °F - 71.1 °F 77% 30.01 in 10.0 mi SSW 10.4 mph 20.7 mph 0.00 in   Scattered Clouds
8:56 PM 79.0 °F - 68.0 °F 69% 30.03 in 10.0 mi WSW 12.7 mph - 0.00 in   Clear
9:56 PM 78.1 °F - 70.0 °F 76% 30.04 in 10.0 mi SSW 5.8 mph - N/A   Clear
10:56 PM 77.0 °F - 71.1 °F 82% 30.05 in 10.0 mi SSW 4.6 mph - N/A   Clear
11:56 PM 77.0 °F - 71.1 °F 82% 30.06 in 10.0 mi SW 9.2 mph 19.6 mph N/A   Overcast